This is the latest recevied weather packets stored in our database for station/object AD8IZ-13. If no packets are shown the sender has not sent any weather packets the latest 10 day(s).
| Time | Temp. | Humidity | Pressure | Rain* | Wind** | Luminosity | Snow |
|---|---|---|---|---|---|---|---|
| 1777932319 | 21.11° C | 63% | 1006.4 hPa | 0 mm | - | 141 W/m² | - |
| 1777931719 | 21.11° C | 63% | 1006.4 hPa | 0 mm | - | 353 W/m² | - |
| 1777931119 | 21.11° C | 62% | 1006.4 hPa | 0 mm | - | 175 W/m² | - |
| 1777930517 | 21.67° C | 62% | 1006.5 hPa | 0 mm | - | 401 W/m² | - |
| 1777929891 | 21.67° C | 62% | 1006.3 hPa | 0 mm | - | 407 W/m² | - |
| 1777929318 | 20.56° C | 64% | 1006 hPa | 0 mm | - | 330 W/m² | - |
| 1777928717 | 20.56° C | 63% | 1006.1 hPa | 0 mm | - | 196 W/m² | - |
| 1777928126 | 20.56° C | 65% | 1006.1 hPa | 0 mm | - | 144 W/m² | - |
| 1777927522 | 21.11° C | 65% | 1006.6 hPa | 0 mm | - | 147 W/m² | - |
| 1777926922 | 21.67° C | 62% | 1006.8 hPa | 0 mm | - | 121 W/m² | - |
| 1777926318 | 21.67° C | 62% | 1007.1 hPa | 0 mm | - | 277 W/m² | - |
| 1777925719 | 21.67° C | 61% | 1007.3 hPa | 0 mm | - | 244 W/m² | - |
| 1777925118 | 22.22° C | 59% | 1007.2 hPa | 0 mm | - | 298 W/m² | - |
| 1777924518 | 23.33° C | 58% | 1006.9 hPa | 0 mm | - | 522 W/m² | - |
| 1777923919 | 22.78° C | 58% | 1007 hPa | 0 mm | - | 772 W/m² | - |
| 1777923321 | 22.78° C | 58% | 1007 hPa | 0 mm | - | 483 W/m² | - |
| 1777922719 | 23.33° C | 57% | 1006.7 hPa | 0 mm | - | 679 W/m² | - |
| 1777922119 | 23.33° C | 58% | 1006.7 hPa | 0 mm | - | 813 W/m² | - |
| 1777921519 | 22.78° C | 59% | 1006.7 hPa | 0 mm | - | 829 W/m² | - |
| 1777920919 | 22.22° C | 58% | 1006.8 hPa | 0 mm | - | 714 W/m² | - |
| 1777920317 | 22.22° C | 59% | 1006.9 hPa | 0 mm | - | 876 W/m² | - |
| 1777919717 | 21.67° C | 60% | 1007.1 hPa | 0 mm | - | 709 W/m² | - |
| 1777919120 | 21.67° C | 59% | 1007.1 hPa | 0 mm | - | 457 W/m² | - |
| 1777918521 | 22.22° C | 60% | 1007.1 hPa | 0 mm | - | 467 W/m² | - |
| 1777917920 | 22.22° C | 59% | 1007.1 hPa | 0 mm | - | 696 W/m² | - |
* Rain latest hour (hover to see other rain measurements)
** Current wind speed in m/s (hover to see current wind gust speed)